Date String (YYYY-MM-DD hh:mm:ss) UTC,Instrument flags,Ambient pressure (hPa),Sample flow (lpm),Bypass flow (lpm),Sample temperature (°C),Ambient temperature (°C),ASC tube jacket temperature (°C),LED temperature (°C),Box temperature (°C),Sample RH (%),Span deviation,Mass concentration (μg/m³),Mass concentration (μg/m³),Mass concentration (μg/m³)
DateTimeUTC,F1_M11,P_M11,Q1_M11,Q2_M11,T1_M11,T2_M11,T3_M11,T4_M11,T5_M11,U1_M11,ZSPAN_M11,X0_M11,X2_M11,X1_M11
2021-10-21 14:00:00,,0832.3,4.99,0.00,24.7,23.9,00.0,33.7,26.6,15.2,0002.0,0008.90,0004.06,0003.20
2021-10-21 14:01:00,,0832.4,5.02,0.00,24.7,23.8,00.0,33.7,26.6,15.1,0002.2,0009.14,0004.07,0003.19
2021-10-21 14:02:00,,0832.4,4.99,0.00,24.7,23.8,00.0,33.7,26.5,15.2,0002.2,0008.85,0004.03,0003.19
2021-10-21 14:03:00,,0832.3,5.00,0.00,24.7,23.8,00.0,33.7,26.5,15.2,0001.8,0008.83,0003.99,0003.19
2021-10-21 14:04:00,,0832.3,5.01,0.00,24.7,23.8,00.0,33.7,26.5,15.2,0001.8,0008.84,0003.98,0003.19
2021-10-21 14:05:00,,0832.3,4.99,0.00,24.7,23.8,00.0,33.7,26.6,15.2,0001.9,0010.10,0003.97,0003.19
2021-10-21 14:06:00,,0832.4,5.01,0.00,24.7,23.8,00.0,33.7,26.5,15.2,0001.1,0010.43,0004.00,0003.19
2021-10-21 14:07:00,,0832.4,4.99,0.00,24.7,23.8,00.0,33.7,26.5,15.1,0001.0,0010.76,0004.07,0003.18
2021-10-21 14:08:00,,0832.4,5.01,0.00,24.7,23.8,00.0,33.7,26.5,15.2,0000.4,0011.18,0004.10,0003.18
2021-10-21 14:09:00,,0832.4,4.99,0.00,24.7,23.9,00.0,33.7,26.5,15.2,0000.5,0010.90,0004.05,0003.17
2021-10-21 14:10:00,,0832.4,5.01,0.00,24.7,23.9,00.0,33.7,26.5,15.1,0001.3,0011.07,0003.98,0003.17
2021-10-21 14:11:00,,0832.4,4.99,0.00,24.7,23.9,00.0,33.7,26.6,15.0,0001.9,0011.32,0003.98,0003.16
2021-10-21 14:12:00,,0832.5,5.01,0.00,24.7,23.9,00.0,33.7,26.5,15.1,0002.3,0011.72,0003.97,0003.15
2021-10-21 14:13:00,,0832.4,5.00,0.00,24.7,23.9,00.0,33.7,26.5,15.2,0002.8,0011.75,0003.99,0003.14
2021-10-21 14:14:00,,0832.4,4.99,0.00,24.7,23.9,00.0,33.7,26.5,15.2,0003.7,0012.03,0004.01,0003.14
2021-10-21 14:15:00,,0832.6,5.00,0.00,24.7,23.8,00.0,33.7,26.5,15.2,0004.0,0012.36,0003.97,0003.13
2021-10-21 14:16:00,,0832.6,5.01,0.00,24.7,23.8,00.0,33.7,26.5,15.2,0004.5,0011.14,0003.94,0003.11
2021-10-21 14:17:00,,0832.6,5.01,0.00,24.7,23.9,00.0,33.7,26.5,15.2,0004.8,0010.57,0003.88,0003.11
2021-10-21 14:18:00,,0832.6,5.00,0.00,24.7,23.9,00.0,33.8,26.5,15.2,0005.0,0010.38,0003.81,0003.09
2021-10-21 14:19:00,,0832.6,5.01,0.00,24.7,23.8,00.0,33.8,26.6,15.2,0005.1,0009.78,0003.76,0003.10
2021-10-21 14:20:00,,0832.6,4.99,0.00,24.7,23.8,00.0,33.8,26.6,15.2,0005.1,0010.00,0003.83,0003.11
2021-10-21 14:21:00,,0832.6,5.00,0.00,24.7,23.8,00.0,33.8,26.6,15.1,0005.2,0010.03,0003.89,0003.10
2021-10-21 14:22:00,,0832.6,5.01,0.00,24.7,23.8,00.0,33.8,26.5,15.1,0004.9,0009.97,0003.91,0003.10
2021-10-21 14:23:00,,0832.6,4.99,0.00,24.7,23.9,00.0,33.8,26.5,15.0,0005.0,0009.21,0003.89,0003.10
2021-10-21 14:24:00,,0832.6,5.01,0.00,24.7,23.9,00.0,33.7,26.5,15.0,0004.7,0009.77,0003.90,0003.11
2021-10-21 14:25:00,,0832.6,4.99,0.00,24.7,23.9,00.0,33.7,26.5,15.0,0004.3,0010.24,0003.86,0003.10
2021-10-21 14:26:00,,0832.6,5.01,0.00,24.7,23.9,00.0,33.7,26.5,14.9,0003.9,0009.88,0003.84,0003.08
2021-10-21 14:27:00,,0832.6,4.99,0.00,24.7,23.9,00.0,33.7,26.5,14.9,0003.6,0010.08,0003.84,0003.06
2021-10-21 14:28:00,,0832.7,5.01,0.00,24.7,23.9,00.0,33.8,26.5,14.8,0001.2,0010.42,0003.84,0003.05
2021-10-21 14:29:00,,0832.7,5.00,0.00,24.7,23.9,00.0,33.8,26.5,14.8,0000.0,0010.40,0003.84,0003.05
2021-10-21 14:30:00,,0832.7,5.00,0.00,24.7,23.8,00.0,33.8,26.5,14.9,0000.0,0010.09,0003.79,0003.02
2021-10-21 14:31:00,,0832.7,5.01,0.00,24.7,23.9,00.0,33.8,26.5,14.9,0000.0,0010.03,0003.76,0003.00
2021-10-21 14:32:00,,0832.7,4.99,0.00,24.7,23.9,00.0,33.8,26.5,14.9,0000.8,0009.68,0003.74,0003.00
2021-10-21 14:33:00,,0832.8,5.00,0.00,24.7,23.9,00.0,33.8,26.5,14.8,0002.8,0009.41,0003.66,0003.00
2021-10-21 14:34:00,,0832.7,5.01,0.00,24.7,23.9,00.0,33.8,26.6,14.8,0002.4,0009.32,0003.65,0002.99
2021-10-21 14:35:00,,0832.8,4.99,0.00,24.7,23.9,00.0,33.8,26.5,14.7,0002.8,0008.98,0003.61,0002.96
2021-10-21 14:36:00,,0832.8,5.01,0.00,24.7,23.8,00.0,33.7,26.5,14.7,0003.2,0008.37,0003.59,0002.93
2021-10-21 14:37:00,,0832.8,4.99,0.00,24.7,23.8,00.0,33.7,26.5,14.7,0002.9,0008.01,0003.61,0002.93
2021-10-21 14:38:00,,0832.7,5.00,0.00,24.7,23.8,00.0,33.8,26.6,14.7,0002.4,0007.92,0003.61,0002.92
2021-10-21 14:39:00,,0832.8,5.00,0.00,24.7,23.8,00.0,33.8,26.5,14.7,0002.2,0007.66,0003.61,0002.91
2021-10-21 14:40:00,,0832.8,4.99,0.00,24.7,23.8,00.0,33.8,26.5,14.7,0002.5,0008.23,0003.63,0002.88
2021-10-21 14:41:00,,0832.8,5.01,0.00,24.7,23.8,00.0,33.8,26.5,14.7,0002.8,0009.17,0003.63,0002.86
2021-10-21 14:42:00,,0832.8,4.99,0.00,24.7,23.8,00.0,33.8,26.5,14.6,0003.2,0009.29,0003.61,0002.85
2021-10-21 14:43:00,,0832.8,4.99,0.00,24.7,23.8,00.0,33.8,26.5,14.6,0003.5,0009.24,0003.56,0002.82
2021-10-21 14:44:00,,0832.9,5.01,0.00,24.7,23.8,00.0,33.8,26.5,14.6,0003.2,0009.24,0003.55,0002.79
2021-10-21 14:45:00,,0832.9,5.00,0.00,24.7,23.8,00.0,33.8,26.5,14.5,0000.6,0009.55,0003.53,0002.77
2021-10-21 14:46:00,,0832.9,4.99,0.00,24.7,23.8,00.0,33.8,26.5,14.6,0001.7,0009.71,0003.51,0002.74
2021-10-21 14:47:00,,0833.0,5.01,0.00,24.7,23.8,00.0,33.8,26.5,14.7,0003.2,0009.52,0003.50,0002.73
2021-10-21 14:48:00,,0833.0,5.00,0.00,24.7,23.8,00.0,33.8,26.5,14.8,0003.8,0009.54,0003.49,0002.74
2021-10-21 14:49:00,,0833.0,5.01,0.00,24.7,23.8,00.0,33.8,26.5,14.9,0002.3,0009.49,0003.47,0002.77
2021-10-21 14:50:00,,0833.0,4.98,0.00,24.7,23.8,00.0,33.8,26.5,14.8,0002.9,0009.45,0003.47,0002.80
2021-10-21 14:51:00,,0833.1,4.99,0.00,24.7,23.8,00.0,33.8,26.5,14.8,0003.0,0008.93,0003.46,0002.84
2021-10-21 14:52:00,,0833.1,5.00,0.00,24.7,23.8,00.0,33.8,26.5,14.6,0003.2,0008.07,0003.49,0002.89
2021-10-21 14:53:00,,0833.0,5.01,0.00,24.7,23.8,00.0,33.8,26.5,14.7,0002.8,0007.92,0003.50,0002.91
2021-10-21 14:54:00,,0833.1,4.99,0.00,24.7,23.8,00.0,33.8,26.5,14.6,0002.9,0008.46,0003.52,0002.95
2021-10-21 14:55:00,,0833.0,5.01,0.00,24.7,23.8,00.0,33.8,26.5,14.6,0002.8,0008.51,0003.55,0003.00
2021-10-21 14:56:00,,0833.0,4.99,0.00,24.7,23.8,00.0,33.8,26.5,14.6,0002.7,0008.42,0003.57,0003.04
2021-10-21 14:57:00,,0833.0,5.01,0.00,24.7,23.8,00.0,33.8,26.5,14.5,0003.1,0007.96,0003.61,0003.09
2021-10-21 14:58:00,,0833.0,5.00,0.00,24.7,23.8,00.0,33.8,26.5,14.5,0002.8,0007.83,0003.61,0003.12
2021-10-21 14:59:00,,0833.0,4.99,0.00,24.7,23.8,00.0,33.8,26.5,14.5,0002.4,0007.75,0003.61,0003.10
